RALLYE MONTE-CARLO

Pos. Piloto Tempo Categoria
1  Sébastien Ogier  3:21'15.9 RC1
2  Thierry Neuville  3:21'18.1 RC1
3  Ott Tanak  3:23'31.1 RC1
4  Sébastien Loeb  3:23'44.1 RC1
5  Jari-Matti Latvala  3:23'45.8 RC1
6  Kris Meeke  3:26'52.1 RC1
7 Gus Greensmith  3:34'20.5 RC2
8  Yoann Bonato  3:35'12.4 RC2
9  Stéphane Sarrazin  3:35'22.7 RC2
10 Renaud Jamoul  3:37'19.3 RC2
11  Teemu Suninen  3:39'12.7 RC1
12 Jonas Andersson  3:39'29.1 RC2
13  Daniel Barritt  3:41'13.8 RC2
14 Denis Giraudet  3:42'10.8 RC2
15 Olivier Burri  3:43'23.0 RC2
16 Yannick Roche  3:43'33.2 RC2
17 Matteo Gamba  3:46'13.0 RC2
18 Jonne Halttunen  3:46'48.3 RC2
19 Davide Caffoni  3:48'41.0 RC2
20  Pontus Tidemand  3:50'50.5 RC1
21 Danilo Fappani  3:51'13.0 RC2
22 Philippe Baffoun  3:53'31.6 RC2
23 Kévin Bronner  3:53'37.3 RC2
24 Manuel Villa  3:54'48.5 RC2
25 Michael Joseph  3:55'32.2 RC2
26 Maurizio Barone  3:55'35.3 RC2
27 Yohan Rossel  3:56'19.1 RC4B
28 Tiziano Gecchele  3:57'37.1 RC2
29 Nicolas Latil  3:58'23.6 RC4B
30 Luca Beltrame  3:58'33.4 RC1
31 Thomas Escartefigue  3:59'49.0 RC4B
32 Thibaut Poizot  4:01'08.5 RC4B
33 Laurent Scherrer  4:06'26.0 RC4B
34 Jean Michele  4:01'50.8 RC2
35 Renaud Dolce  4:07'05.7 RC4B
36 Cédric Durand  4:08'35.3 RC3
37 Andrea Nucita  4:09'25.5 RC2
38 Bertrand Pierrat  4:09'45.2 RC2
39 Olivier Courtois  4:10'18.0 RC3
40 Cedric Amoros  4:10'55.3 RC3
41 Roberto Mometti  4:12'03.7 RGT
42 Mickael Boisseranc  4:16'46.2 RC4B
43 Monica Cicognini  4:16'50.2 RC2
44 Henk Vossen  4:17'12.6 RC2
45 Marco Blanc  4:18'26.6 RC4B
46 Philippe Rageau  4:19'15.3 RC3
47 Lilian Vialle  4:21'22.0 RC3
48 Richard Desbordes  4:22'40.9 RC5
49 Nikolaos Pavlidis  4:23'29.8 RC4B
50 Gilles Michellier  4:24'25.6 RC4B
51 Ophélie Abchiche  4:24'13.1 RC4B
52 Laure Jaussaud  4:26'33.6 RC4B
53 Paul Gardère  4:28'09.6 RC4B
54 Paulo Santos  4:28'35.2 RC4B
55 Carlo Covi  4:28'57.9 RC4B
56 Alain Mari  4:31'12.6 RC5
57 Patrick Therry  4:32'39.4 RC5
58 Filippo Bordignon  4:48'26.1 RC4B
59 Pascal Eouzan  4:48'54.3 RC4B
60 Stéphane Clair  4:52'27.0 RC3
61 Damien Augustin  4:55'57.0 RC4B
62 Emanuela Revello  4:55'58.7 RC3
63 Sergio Marchetti  4:59'33.2 RC3
64 Christophe Berard  4:59'40.1 RC5
65 Claude Bensimon  5:02'40.4 RC4B
66 Marc Dessi  5:11'31.9 RC4B
67 Olivier Desmoulins  5:16'08.2 RC3

Testes